DW8871 Weather Reports


time (UTC)temp
C
wind
direction
speed
KPH
gust
KPH
rain 1hr
cm
rain 24hr
cm
rain mn
cm
humidity
%
barometer
mb
20260505083050 11 90 6.4 16.1 0.00 0.03 0.03 63 1007.6
20260505081546 11 55 1.6 11.3 0.03 0.03 0.03 64 1007.3
20260505080042 11 30 4.8 14.5 0.03 0.03 0.03 65 1008.7
20260505074530 11 0 1.6 11.3 0.03 0.03 0.03 66 1008.3
20260505073047 12 61 3.2 12.9 0.03 0.03 0.03 61 1009.1
20260505071543 13 99 6.4 16.1 0.00 0.00 0.00 54 1009.0
20260505070039 14 48 4.8 19.3 0.00 0.00 0.00 46 1009.2
20260505064529 15 23 8.0 25.7 0.00 0.00 0.00 44 1007.8
20260505063036 15 36 8.0 22.5 0.00 0.00 0.00 43 1007.2
20260505061532 15 42 3.2 22.5 0.00 0.00 0.00 43 1006.9
20260505060051 16 51 9.7 30.6 0.00 0.00 0.00 43 1006.5
20260505054532 17 14 12.9 32.2 0.00 0.00 0.00 41 1006.0
20260505053028 18 50 6.4 29.0 0.00 0.00 0.00 41 1006.1
20260505051530 18 352 8.0 29.0 0.00 0.00 0.00 40 1005.5
20260505041536 21 49 4.8 27.4 0.00 0.00 0.00 43 1004.3
20260505040030 21 0 6.4 22.5 0.00 0.00 0.00 44 1004.5
20260505034530 21 28 6.4 17.7 0.00 0.00 0.00 53 1004.0
20260505033033 19 5 3.2 14.5 0.00 0.00 0.00 67 1003.9
20260505031529 17 0 0.0 0.0 0.00 0.00 0.00 80 1003.6
20260505030029 17 0 0.0 0.0 0.00 0.00 0.00 79 1002.9
20260505024532 18 0 0.0 0.0 0.00 0.00 0.00 78 1002.8
20260505023032 18 0 0.0 0.0 0.00 0.00 0.00 76 1002.7
20260505021532 18 0 0.0 0.0 0.00 0.00 0.00 76 1002.6
20260505020038 19 0 0.0 0.0 0.00 0.00 0.00 69 1002.3
20260505014548 20 0 0.0 0.0 0.00 0.00 0.00 64 1002.1
20260505013037 21 0 0.0 0.0 0.00 0.00 0.00 62 1001.9
20260505011535 22 0 0.0 0.0 0.00 0.00 0.00 60 1001.7
20260505010030 23 0 0.0 3.2 0.00 0.00 0.00 60 1001.6
20260505004544 24 0 0.0 4.8 0.00 0.00 0.00 52 1001.5
20260505003049 25 246 0.0 6.4 0.00 0.00 0.00 50 1001.4
20260505001532 25 260 0.0 11.3 0.00 0.00 0.00 48 1001.5
20260505000035 26 263 3.2 11.3 0.00 0.00 0.00 46 1001.4
20260504234530 26 257 1.6 9.7 0.00 0.00 0.00 44 1001.5
20260504233029 26 229 3.2 12.9 0.00 0.00 0.00 41 1001.5
20260504231532 26 205 3.2 14.5 0.00 0.00 0.00 42 1001.5
20260504230032 26 238 4.8 14.5 0.00 0.00 0.00 42 1001.5
20260504224529 26 239 8.0 16.1 0.00 0.00 0.00 42 1001.5
20260504223037 27 285 8.0 17.7 0.00 0.00 0.00 40 1001.4
20260504221530 27 225 6.4 17.7 0.00 0.00 0.00 41 1001.5
20260504220032 27 223 9.7 17.7 0.00 0.00 0.00 42 1001.4
20260504214533 27 230 4.8 17.7 0.00 0.00 0.00 39 1001.6
20260504213032 27 231 3.2 12.9 0.00 0.00 0.00 38 1001.7
20260504211539 27 286 8.0 16.1 0.00 0.00 0.00 37 1001.7
20260504210036 27 309 3.2 16.1 0.00 0.00 0.00 39 1001.7
20260504204532 27 267 6.4 16.1 0.00 0.00 0.00 35 1001.9
20260504203030 28 238 3.2 17.7 0.00 0.00 0.00 39 1002.1
20260504201530 27 321 6.4 14.5 0.00 0.00 0.00 40 1002.2
20260504200030 27 254 9.7 19.3 0.00 0.00 0.00 42 1002.3
20260504194529 27 231 9.7 24.1 0.00 0.00 0.00 44 1002.3
20260504193032 26 261 6.4 20.9 0.00 0.00 0.00 44 1002.3
20260504191529 26 223 8.0 19.3 0.00 0.00 0.00 47 1002.3
20260504190030 26 259 8.0 20.9 0.00 0.00 0.00 45 1002.3
20260504184544 26 259 6.4 16.1 0.00 0.00 0.00 47 1002.4
20260504183029 25 238 8.0 20.9 0.00 0.00 0.00 46 1002.5
20260504181534 25 243 9.7 20.9 0.00 0.00 0.00 47 1002.5
20260504180033 25 225 6.4 17.7 0.00 0.00 0.00 47 1002.8
20260504174530 24 292 8.0 22.5 0.00 0.00 0.00 49 1002.9
20260504173030 23 238 12.9 24.1 0.00 0.00 0.00 50 1003.0
20260504171530 23 259 9.7 25.7 0.00 0.00 0.00 52 1003.2